Dati Storici

Data ora Umidita' aria (%) Temperatura aria (°C) Rad globale (W/m²) Gonioanemometro (°) Tacoanemometro (m/s) Pioggia (mm)
16-06-2020 17:30 51.5 % 25.749 -66.397 1.597 0 0
16-06-2020 17:20 50.5 % 25.777 -41.542 0.654 0 0
16-06-2020 17:10 48.5 % 26.056 -61.137 1.95 0 0
16-06-2020 17:00 51 % 26.106 -40.683 0.808 0 0
16-06-2020 16:50 48.7 % 26.206 -63.557 1.025 0 0
16-06-2020 16:40 50.8 % 26.085 -67.936 2.193 0 0
16-06-2020 16:30 52.4 % 25.969 -72.676 1.101 0 0
16-06-2020 16:20 52.7 % 25.955 -51.892 2.902 0 0
16-06-2020 16:10 52.2 % 25.877 -67.817 3.499 0 0
16-06-2020 16:00 52.7 % 26.953 -59.651 0.627 0 0
16-06-2020 15:50 52.4 % 26.481 129.36 2.623 0 0
16-06-2020 15:40 51.2 % 26.596 214.341 0.507 0 0
16-06-2020 15:30 53.4 % 26.296 96.048 1.524 0 0
16-06-2020 15:20 51.2 % 26.736 117.728 1.986 0 0
16-06-2020 15:10 48.7 % 26.44 161.319 4.156 0 0
16-06-2020 15:00 49.1 % 26.783 201.492 1.215 0 0
16-06-2020 14:50 51 % 26.547 116.964 1.074 0 0
16-06-2020 14:40 51.6 % 26.826 111.871 3.131 0 0
16-06-2020 14:30 53.3 % 25.811 91.752 -0.034 0 0
16-06-2020 14:20 52.6 % 25.515 169.824 0.599 0 0

I dati sono presentati in modo automatico a scopo informativo. In seguito a verifica i dati possono subire modifiche o essere invalidati e non riportati negli archivi definitivi.